Weather History for KHLC - September, 2012

Change the Weather History Date:

Saturday, September 22, 2012

  Actual Average Record
Temperature  
Mean Temperature 61 °F 65 °F  
Max Temperature 74 °F 79 °F 99 °F (1945)
Min Temperature 47 °F 50 °F 30 °F (1983)
Degree Days  
Heating Degree Days 5    
Growing Degree Days 10 (Base 50)    
Moisture  
Dew Point 36 °F    
Average Humidity 45    
Maximum Humidity 71    
Minimum Humidity 25    
Precipitation  
Precipitation 0.00 in 0.06 in 1.70 in (2004)
Month to date precipitation 1.88 1.43  
Year to date precipitation 8.71 19.31  
Sea Level Pressure  
Sea Level Pressure 30.19 in    
Wind  
Wind Speed 7 mph (ENE)    
Max Wind Speed 14 mph    
Max Gust Speed 18 mph    
Visibility 10 miles    
Events      
T = Trace of Precipitation, MM = Missing Value Source: NWS Daily Summary

Daily Weather History Graph

Daily Weather History Graph

Search for Another Location

Airport or City:

Trip Planner

Search our weather history database for the weather conditions in past years. The results will help you decide how hot, cold, wet, or windy it might be!

Date:

Astronomy

Sep. 22, 2012 Rise Set
Actual Time 7:27 AM CDT 7:35 PM CDT
Civil Twilight 7:00 AM CDT 8:02 PM CDT
Nautical Twilight 6:29 AM CDT 8:33 PM CDT
Astronomical Twilight 5:57 AM CDT 9:05 PM CDT
Moon 2:44 PM CDT (9/22) No Moon Set
Length of Visible Light 13h 01m
Length of Day
12h 08m
Waxing Crescent, 49% of the Moon is Illuminated
Sep 22
Waxing Crescent
Sep 22
First Quarter
Sep 29
Full
Oct 8
Last Quarter
Oct 15
New

Hourly Weather History & Observations

Time (CDT) Temp. Dew Point Humidity Pressure Visibility Wind Dir Wind Speed Gust Speed Precip Events Conditions
12:53 AM 52.0 °F 41.0 °F 66% 30.01 in 10.0 mi West 3.5 mph - N/A   Clear
1:53 AM 52.0 °F 39.9 °F 63% 30.04 in 10.0 mi West 4.6 mph - N/A   Clear
2:53 AM 50.0 °F 41.0 °F 71% 30.07 in 10.0 mi NW 4.6 mph - N/A   Clear
3:53 AM 55.9 °F 37.9 °F 51% 30.08 in 10.0 mi North 13.8 mph - N/A   Clear
4:53 AM 55.0 °F 37.9 °F 53% 30.12 in 10.0 mi North 13.8 mph - N/A   Clear
5:53 AM 52.0 °F 37.0 °F 57% 30.16 in 10.0 mi NNE 10.4 mph - N/A   Clear
6:53 AM 51.1 °F 36.0 °F 56% 30.18 in 10.0 mi NNE 9.2 mph - N/A   Clear
7:53 AM 48.9 °F 36.0 °F 61% 30.23 in 10.0 mi NNE 6.9 mph - N/A   Clear
11:53 AM 66.9 °F 32.0 °F 27% 30.29 in 10.0 mi ENE 10.4 mph - N/A   Clear
12:53 PM 70.0 °F 32.0 °F 25% 30.27 in 10.0 mi NE 10.4 mph - N/A   Clear
1:53 PM 71.1 °F 33.1 °F 25% 30.26 in 10.0 mi ENE 11.5 mph 18.4 mph N/A   Clear
2:53 PM 71.1 °F 33.1 °F 25% 30.25 in 10.0 mi East 11.5 mph - N/A   Clear
3:53 PM 72.0 °F 34.0 °F 25% 30.22 in 10.0 mi East 12.7 mph 17.3 mph N/A   Clear
4:53 PM 72.0 °F 34.0 °F 25% 30.20 in 10.0 mi East 9.2 mph - N/A   Clear
5:53 PM 71.1 °F 33.1 °F 25% 30.20 in 10.0 mi ESE 10.4 mph - N/A   Clear
6:53 PM 66.9 °F 34.0 °F 30% 30.20 in 10.0 mi East 5.8 mph - N/A   Clear
7:53 PM 59.0 °F 35.1 °F 41% 30.22 in 10.0 mi East 3.5 mph - N/A   Clear
8:53 PM 55.0 °F 35.1 °F 47% 30.24 in 10.0 mi East 4.6 mph - N/A   Clear
9:53 PM 52.0 °F 36.0 °F 54% 30.26 in 10.0 mi Calm Calm - N/A   Clear
10:53 PM 50.0 °F 35.1 °F 57% 30.27 in 10.0 mi East 4.6 mph - N/A   Clear
11:53 PM 48.9 °F 34.0 °F 56% 30.26 in 10.0 mi East 4.6 mph - N/A   Clear